owner,sensor,date,latitude,longitude,sea_surface_height_above_sea_level,qcFlag 
COMPS,ioos:station:USF.COMPS:ARP:1,2012-02-02T20:00:00Z,28.4330,-82.6670,-0.178,1111122 
COMPS,ioos:station:USF.COMPS:ARP:1,2012-02-02T20:06:00Z,28.4330,-82.6670,-0.183,1111122 
COMPS,ioos:station:USF.COMPS:ARP:1,2012-02-02T20:12:00Z,28.4330,-82.6670,-0.184,1111122 
COMPS,ioos:station:USF.COMPS:ARP:1,2012-02-02T20:18:00Z,28.4330,-82.6670,-0.177,1111122 
COMPS,ioos:station:USF.COMPS:ARP:1,2012-02-02T20:24:00Z,28.4330,-82.6670,-0.17,1111122 
COMPS,ioos:station:USF.COMPS:ARP:1,2012-02-02T20:30:00Z,28.4330,-82.6670,-0.168,1111122 
COMPS,ioos:station:USF.COMPS:ARP:1,2012-02-02T20:36:00Z,28.4330,-82.6670,-0.159,1111122 
COMPS,ioos:station:USF.COMPS:ARP:1,2012-02-02T20:42:00Z,28.4330,-82.6670,-0.155,1111122 
COMPS,ioos:station:USF.COMPS:ARP:1,2012-02-02T20:48:00Z,28.4330,-82.6670,-0.155,1111122 
COMPS,ioos:station:USF.COMPS:ARP:1,2012-02-02T20:54:00Z,28.4330,-82.6670,-0.141,1111122 
COMPS,ioos:station:USF.COMPS:ARP:1,2012-02-02T21:00:00Z,28.4330,-82.6670,-0.137,1111122 
COMPS,ioos:station:USF.COMPS:ARP:1,2012-02-02T21:06:00Z,28.4330,-82.6670,-0.129,1111122 
COMPS,ioos:station:USF.COMPS:ARP:1,2012-02-02T21:12:00Z,28.4330,-82.6670,-0.117,1111122 
COMPS,ioos:station:USF.COMPS:ARP:1,2012-02-02T21:18:00Z,28.4330,-82.6670,-0.109,1111122 
COMPS,ioos:station:USF.COMPS:ARP:1,2012-02-02T21:24:00Z,28.4330,-82.6670,-0.094,1111122 
COMPS,ioos:station:USF.COMPS:ARP:1,2012-02-02T21:30:00Z,28.4330,-82.6670,-0.085,1111122 
COMPS,ioos:station:USF.COMPS:ARP:1,2012-02-02T21:36:00Z,28.4330,-82.6670,-0.075,1111122 
COMPS,ioos:station:USF.COMPS:ARP:1,2012-02-02T21:42:00Z,28.4330,-82.6670,-0.063,1111122 
COMPS,ioos:station:USF.COMPS:ARP:1,2012-02-02T21:48:00Z,28.4330,-82.6670,-0.057,1111122 
COMPS,ioos:station:USF.COMPS:ARP:1,2012-02-02T21:54:00Z,28.4330,-82.6670,-0.047,1111122 
COMPS,ioos:station:USF.COMPS:ARP:1,2012-02-02T22:00:00Z,28.4330,-82.6670,-0.038,1111122 
COMPS,ioos:station:USF.COMPS:ARP:1,2012-02-02T22:06:00Z,28.4330,-82.6670,-0.028,1111122 
COMPS,ioos:station:USF.COMPS:ARP:1,2012-02-02T22:12:00Z,28.4330,-82.6670,-0.016,1111122 
COMPS,ioos:station:USF.COMPS:ARP:1,2012-02-02T22:18:00Z,28.4330,-82.6670,-0.007,1111122 
COMPS,ioos:station:USF.COMPS:ARP:1,2012-02-02T22:24:00Z,28.4330,-82.6670,0.003,1111122 
COMPS,ioos:station:USF.COMPS:ARP:1,2012-02-02T22:30:00Z,28.4330,-82.6670,0.013,1111122 
COMPS,ioos:station:USF.COMPS:ARP:1,2012-02-02T22:36:00Z,28.4330,-82.6670,0.017,1111122 
COMPS,ioos:station:USF.COMPS:ARP:1,2012-02-02T22:42:00Z,28.4330,-82.6670,0.027,1111122 
COMPS,ioos:station:USF.COMPS:ARP:1,2012-02-02T22:48:00Z,28.4330,-82.6670,0.034,1111122 
COMPS,ioos:station:USF.COMPS:ARP:1,2012-02-02T22:54:00Z,28.4330,-82.6670,0.042,1111122 
COMPS,ioos:station:USF.COMPS:ARP:1,2012-02-02T23:00:00Z,28.4330,-82.6670,0.054,1111122 
COMPS,ioos:station:USF.COMPS:ARP:1,2012-02-02T23:06:00Z,28.4330,-82.6670,0.064,1111122 
COMPS,ioos:station:USF.COMPS:ARP:1,2012-02-02T23:12:00Z,28.4330,-82.6670,0.076,1111122 
COMPS,ioos:station:USF.COMPS:ARP:1,2012-02-02T23:18:00Z,28.4330,-82.6670,0.085,1111122 
COMPS,ioos:station:USF.COMPS:ARP:1,2012-02-02T23:24:00Z,28.4330,-82.6670,0.096,1111122 
COMPS,ioos:station:USF.COMPS:ARP:1,2012-02-02T23:30:00Z,28.4330,-82.6670,0.105,1111122 
COMPS,ioos:station:USF.COMPS:ARP:1,2012-02-02T23:36:00Z,28.4330,-82.6670,0.115,1111122 
COMPS,ioos:station:USF.COMPS:ARP:1,2012-02-02T23:42:00Z,28.4330,-82.6670,0.123,1111122 
COMPS,ioos:station:USF.COMPS:ARP:1,2012-02-02T23:48:00Z,28.4330,-82.6670,0.132,1111122 
COMPS,ioos:station:USF.COMPS:ARP:1,2012-02-02T23:54:00Z,28.4330,-82.6670,0.139,1111122 
COMPS,ioos:station:USF.COMPS:ARP:1,2012-02-03T00:00:00Z,28.4330,-82.6670,0.147,1111122 
COMPS,ioos:station:USF.COMPS:ARP:1,2012-02-03T00:06:00Z,28.4330,-82.6670,0.158,1111122 
COMPS,ioos:station:USF.COMPS:ARP:1,2012-02-03T00:12:00Z,28.4330,-82.6670,0.169,1111122 
COMPS,ioos:station:USF.COMPS:ARP:1,2012-02-03T00:18:00Z,28.4330,-82.6670,0.177,1111122 
COMPS,ioos:station:USF.COMPS:ARP:1,2012-02-03T00:24:00Z,28.4330,-82.6670,0.185,1111122 
COMPS,ioos:station:USF.COMPS:ARP:1,2012-02-03T00:30:00Z,28.4330,-82.6670,0.187,1111122 
COMPS,ioos:station:USF.COMPS:ARP:1,2012-02-03T00:36:00Z,28.4330,-82.6670,0.197,1111122 
COMPS,ioos:station:USF.COMPS:ARP:1,2012-02-03T00:42:00Z,28.4330,-82.6670,0.202,1111122 
COMPS,ioos:station:USF.COMPS:ARP:1,2012-02-03T00:48:00Z,28.4330,-82.6670,0.202,1111122 
COMPS,ioos:station:USF.COMPS:ARP:1,2012-02-03T00:54:00Z,28.4330,-82.6670,0.215,1111122 
COMPS,ioos:station:USF.COMPS:ARP:1,2012-02-03T01:00:00Z,28.4330,-82.6670,0.226,1111122 
COMPS,ioos:station:USF.COMPS:ARP:1,2012-02-03T01:06:00Z,28.4330,-82.6670,0.235,1111122 
COMPS,ioos:station:USF.COMPS:ARP:1,2012-02-03T01:12:00Z,28.4330,-82.6670,0.245,1111122 
COMPS,ioos:station:USF.COMPS:ARP:1,2012-02-03T01:18:00Z,28.4330,-82.6670,0.253,1111122 
COMPS,ioos:station:USF.COMPS:ARP:1,2012-02-03T01:24:00Z,28.4330,-82.6670,0.262,1111122 
COMPS,ioos:station:USF.COMPS:ARP:1,2012-02-03T01:30:00Z,28.4330,-82.6670,0.266,1111122 
COMPS,ioos:station:USF.COMPS:ARP:1,2012-02-03T01:36:00Z,28.4330,-82.6670,0.259,1111122 
COMPS,ioos:station:USF.COMPS:ARP:1,2012-02-03T01:42:00Z,28.4330,-82.6670,0.256,1111122 
COMPS,ioos:station:USF.COMPS:ARP:1,2012-02-03T01:48:00Z,28.4330,-82.6670,0.258,1111122 
COMPS,ioos:station:USF.COMPS:ARP:1,2012-02-03T01:54:00Z,28.4330,-82.6670,0.248,1111122 
COMPS,ioos:station:USF.COMPS:ARP:1,2012-02-03T02:00:00Z,28.4330,-82.6670,0.242,1111122 
COMPS,ioos:station:USF.COMPS:ARP:1,2012-02-03T02:06:00Z,28.4330,-82.6670,0.231,1111122 
COMPS,ioos:station:USF.COMPS:ARP:1,2012-02-03T02:12:00Z,28.4330,-82.6670,0.216,1111122 
COMPS,ioos:station:USF.COMPS:ARP:1,2012-02-03T02:18:00Z,28.4330,-82.6670,0.217,1111122 
COMPS,ioos:station:USF.COMPS:ARP:1,2012-02-03T02:24:00Z,28.4330,-82.6670,0.21,1111122 
COMPS,ioos:station:USF.COMPS:ARP:1,2012-02-03T02:30:00Z,28.4330,-82.6670,0.197,1111122 
COMPS,ioos:station:USF.COMPS:ARP:1,2012-02-03T02:36:00Z,28.4330,-82.6670,0.189,1111122 
COMPS,ioos:station:USF.COMPS:ARP:1,2012-02-03T02:42:00Z,28.4330,-82.6670,0.194,1111122 
COMPS,ioos:station:USF.COMPS:ARP:1,2012-02-03T02:48:00Z,28.4330,-82.6670,0.182,1111122 
COMPS,ioos:station:USF.COMPS:ARP:1,2012-02-03T02:54:00Z,28.4330,-82.6670,0.172,1111122 
COMPS,ioos:station:USF.COMPS:ARP:1,2012-02-03T03:00:00Z,28.4330,-82.6670,0.166,1111122 
COMPS,ioos:station:USF.COMPS:ARP:1,2012-02-03T03:06:00Z,28.4330,-82.6670,0.16,1111122 
COMPS,ioos:station:USF.COMPS:ARP:1,2012-02-03T03:12:00Z,28.4330,-82.6670,0.148,1111122 
COMPS,ioos:station:USF.COMPS:ARP:1,2012-02-03T03:18:00Z,28.4330,-82.6670,0.149,1111122 
COMPS,ioos:station:USF.COMPS:ARP:1,2012-02-03T03:24:00Z,28.4330,-82.6670,0.139,1111122 
COMPS,ioos:station:USF.COMPS:ARP:1,2012-02-03T03:30:00Z,28.4330,-82.6670,0.132,1111122 
COMPS,ioos:station:USF.COMPS:ARP:1,2012-02-03T03:36:00Z,28.4330,-82.6670,0.121,1111122 
COMPS,ioos:station:USF.COMPS:ARP:1,2012-02-03T03:42:00Z,28.4330,-82.6670,0.108,1111122 
COMPS,ioos:station:USF.COMPS:ARP:1,2012-02-03T03:48:00Z,28.4330,-82.6670,0.091,1111122 
COMPS,ioos:station:USF.COMPS:ARP:1,2012-02-03T03:54:00Z,28.4330,-82.6670,0.075,1111122 
COMPS,ioos:station:USF.COMPS:ARP:1,2012-02-03T04:00:00Z,28.4330,-82.6670,0.06,1111122 
COMPS,ioos:station:USF.COMPS:ARP:1,2012-02-03T04:06:00Z,28.4330,-82.6670,0.044,1111122 
COMPS,ioos:station:USF.COMPS:ARP:1,2012-02-03T04:12:00Z,28.4330,-82.6670,0.032,1111122 
COMPS,ioos:station:USF.COMPS:ARP:1,2012-02-03T04:18:00Z,28.4330,-82.6670,0.018,1111122 
COMPS,ioos:station:USF.COMPS:ARP:1,2012-02-03T04:24:00Z,28.4330,-82.6670,0.006,1111122 
COMPS,ioos:station:USF.COMPS:ARP:1,2012-02-03T04:30:00Z,28.4330,-82.6670,-0.01,1111122 
COMPS,ioos:station:USF.COMPS:ARP:1,2012-02-03T04:36:00Z,28.4330,-82.6670,-0.026,1111122 
COMPS,ioos:station:USF.COMPS:ARP:1,2012-02-03T04:42:00Z,28.4330,-82.6670,-0.04,1111122 
COMPS,ioos:station:USF.COMPS:ARP:1,2012-02-03T04:48:00Z,28.4330,-82.6670,-0.053,1111122 
COMPS,ioos:station:USF.COMPS:ARP:1,2012-02-03T04:54:00Z,28.4330,-82.6670,-0.071,1111122 
COMPS,ioos:station:USF.COMPS:ARP:1,2012-02-03T05:00:00Z,28.4330,-82.6670,-0.087,1111122 
COMPS,ioos:station:USF.COMPS:ARP:1,2012-02-03T05:06:00Z,28.4330,-82.6670,-0.104,1111122 
COMPS,ioos:station:USF.COMPS:ARP:1,2012-02-03T05:12:00Z,28.4330,-82.6670,-0.121,1111122 
COMPS,ioos:station:USF.COMPS:ARP:1,2012-02-03T05:18:00Z,28.4330,-82.6670,-0.137,1111122 
COMPS,ioos:station:USF.COMPS:ARP:1,2012-02-03T05:24:00Z,28.4330,-82.6670,-0.153,1111122 
COMPS,ioos:station:USF.COMPS:ARP:1,2012-02-03T05:30:00Z,28.4330,-82.6670,-0.169,1111122 
COMPS,ioos:station:USF.COMPS:ARP:1,2012-02-03T05:36:00Z,28.4330,-82.6670,-0.184,1111122 
COMPS,ioos:station:USF.COMPS:ARP:1,2012-02-03T05:42:00Z,28.4330,-82.6670,-0.199,1111122 
COMPS,ioos:station:USF.COMPS:ARP:1,2012-02-03T05:48:00Z,28.4330,-82.6670,-0.215,1111122 
COMPS,ioos:station:USF.COMPS:ARP:1,2012-02-03T05:54:00Z,28.4330,-82.6670,-0.228,1111122 
COMPS,ioos:station:USF.COMPS:ARP:1,2012-02-03T06:00:00Z,28.4330,-82.6670,-0.243,1111122 
COMPS,ioos:station:USF.COMPS:ARP:1,2012-02-03T06:06:00Z,28.4330,-82.6670,-0.256,1111122 
COMPS,ioos:station:USF.COMPS:ARP:1,2012-02-03T06:12:00Z,28.4330,-82.6670,-0.27,1111122 
COMPS,ioos:station:USF.COMPS:ARP:1,2012-02-03T06:18:00Z,28.4330,-82.6670,-0.283,1111122 
COMPS,ioos:station:USF.COMPS:ARP:1,2012-02-03T06:24:00Z,28.4330,-82.6670,-0.296,1111122 
COMPS,ioos:station:USF.COMPS:ARP:1,2012-02-03T06:30:00Z,28.4330,-82.6670,-0.308,1111122 
COMPS,ioos:station:USF.COMPS:ARP:1,2012-02-03T06:36:00Z,28.4330,-82.6670,-0.32,1111122 
COMPS,ioos:station:USF.COMPS:ARP:1,2012-02-03T06:42:00Z,28.4330,-82.6670,-0.333,1111122 
COMPS,ioos:station:USF.COMPS:ARP:1,2012-02-03T06:48:00Z,28.4330,-82.6670,-0.345,1111122 
COMPS,ioos:station:USF.COMPS:ARP:1,2012-02-03T06:54:00Z,28.4330,-82.6670,-0.357,1111122 
COMPS,ioos:station:USF.COMPS:ARP:1,2012-02-03T07:00:00Z,28.4330,-82.6670,-0.369,1111122 
COMPS,ioos:station:USF.COMPS:ARP:1,2012-02-03T07:06:00Z,28.4330,-82.6670,-0.38,1111122 
COMPS,ioos:station:USF.COMPS:ARP:1,2012-02-03T07:12:00Z,28.4330,-82.6670,-0.391,1111122 
COMPS,ioos:station:USF.COMPS:ARP:1,2012-02-03T07:18:00Z,28.4330,-82.6670,-0.402,1111122 
COMPS,ioos:station:USF.COMPS:ARP:1,2012-02-03T07:24:00Z,28.4330,-82.6670,-0.412,1111122 
COMPS,ioos:station:USF.COMPS:ARP:1,2012-02-03T07:30:00Z,28.4330,-82.6670,-0.423,1111122 
COMPS,ioos:station:USF.COMPS:ARP:1,2012-02-03T07:36:00Z,28.4330,-82.6670,-0.434,1111122 
COMPS,ioos:station:USF.COMPS:ARP:1,2012-02-03T07:42:00Z,28.4330,-82.6670,-0.444,1111122 
COMPS,ioos:station:USF.COMPS:ARP:1,2012-02-03T07:48:00Z,28.4330,-82.6670,-0.455,1111122 
COMPS,ioos:station:USF.COMPS:ARP:1,2012-02-03T07:54:00Z,28.4330,-82.6670,-0.465,1111122 
COMPS,ioos:station:USF.COMPS:ARP:1,2012-02-03T08:00:00Z,28.4330,-82.6670,-0.473,1111122 
COMPS,ioos:station:USF.COMPS:ARP:1,2012-02-03T08:06:00Z,28.4330,-82.6670,-0.483,1111122 
COMPS,ioos:station:USF.COMPS:ARP:1,2012-02-03T08:12:00Z,28.4330,-82.6670,-0.49,1111122 
COMPS,ioos:station:USF.COMPS:ARP:1,2012-02-03T08:18:00Z,28.4330,-82.6670,-0.499,1111122 
COMPS,ioos:station:USF.COMPS:ARP:1,2012-02-03T08:24:00Z,28.4330,-82.6670,-0.508,1111122 
COMPS,ioos:station:USF.COMPS:ARP:1,2012-02-03T08:30:00Z,28.4330,-82.6670,-0.516,1111122 
COMPS,ioos:station:USF.COMPS:ARP:1,2012-02-03T08:36:00Z,28.4330,-82.6670,-0.523,1111122 
COMPS,ioos:station:USF.COMPS:ARP:1,2012-02-03T08:42:00Z,28.4330,-82.6670,-0.531,1111122 
COMPS,ioos:station:USF.COMPS:ARP:1,2012-02-03T08:48:00Z,28.4330,-82.6670,-0.538,1111122 
COMPS,ioos:station:USF.COMPS:ARP:1,2012-02-03T08:54:00Z,28.4330,-82.6670,-0.544,1111122 
COMPS,ioos:station:USF.COMPS:ARP:1,2012-02-03T09:00:00Z,28.4330,-82.6670,-0.55,1111122 
COMPS,ioos:station:USF.COMPS:ARP:1,2012-02-03T09:06:00Z,28.4330,-82.6670,-0.556,1111122 
COMPS,ioos:station:USF.COMPS:ARP:1,2012-02-03T09:12:00Z,28.4330,-82.6670,-0.562,1111122 
COMPS,ioos:station:USF.COMPS:ARP:1,2012-02-03T09:18:00Z,28.4330,-82.6670,-0.567,1111122 
COMPS,ioos:station:USF.COMPS:ARP:1,2012-02-03T09:24:00Z,28.4330,-82.6670,-0.572,1111122 
COMPS,ioos:station:USF.COMPS:ARP:1,2012-02-03T09:30:00Z,28.4330,-82.6670,-0.577,1111122 
COMPS,ioos:station:USF.COMPS:ARP:1,2012-02-03T09:36:00Z,28.4330,-82.6670,-0.582,1111122 
COMPS,ioos:station:USF.COMPS:ARP:1,2012-02-03T09:42:00Z,28.4330,-82.6670,-0.575,1111122 
COMPS,ioos:station:USF.COMPS:ARP:1,2012-02-03T09:48:00Z,28.4330,-82.6670,-0.575,1111122 
COMPS,ioos:station:USF.COMPS:ARP:1,2012-02-03T09:54:00Z,28.4330,-82.6670,-0.577,1111122 
COMPS,ioos:station:USF.COMPS:ARP:1,2012-02-03T10:00:00Z,28.4330,-82.6670,-0.579,1111122 
COMPS,ioos:station:USF.COMPS:ARP:1,2012-02-03T10:06:00Z,28.4330,-82.6670,-0.576,1111122 
COMPS,ioos:station:USF.COMPS:ARP:1,2012-02-03T10:12:00Z,28.4330,-82.6670,-0.574,1111122 
COMPS,ioos:station:USF.COMPS:ARP:1,2012-02-03T10:18:00Z,28.4330,-82.6670,-0.574,1111122 
COMPS,ioos:station:USF.COMPS:ARP:1,2012-02-03T10:24:00Z,28.4330,-82.6670,-0.574,1111122 
COMPS,ioos:station:USF.COMPS:ARP:1,2012-02-03T10:30:00Z,28.4330,-82.6670,-0.574,1111122 
COMPS,ioos:station:USF.COMPS:ARP:1,2012-02-03T10:36:00Z,28.4330,-82.6670,-0.574,1111122 
COMPS,ioos:station:USF.COMPS:ARP:1,2012-02-03T10:42:00Z,28.4330,-82.6670,-0.574,1111122 
COMPS,ioos:station:USF.COMPS:ARP:1,2012-02-03T10:48:00Z,28.4330,-82.6670,-0.574,1111122 
COMPS,ioos:station:USF.COMPS:ARP:1,2012-02-03T10:54:00Z,28.4330,-82.6670,-0.574,1111122 
COMPS,ioos:station:USF.COMPS:ARP:1,2012-02-03T11:00:00Z,28.4330,-82.6670,-0.574,1111122 
COMPS,ioos:station:USF.COMPS:ARP:1,2012-02-03T11:06:00Z,28.4330,-82.6670,-0.574,1111122 
COMPS,ioos:station:USF.COMPS:ARP:1,2012-02-03T11:12:00Z,28.4330,-82.6670,-0.574,1111122 
COMPS,ioos:station:USF.COMPS:ARP:1,2012-02-03T11:18:00Z,28.4330,-82.6670,-0.574,1111122 
COMPS,ioos:station:USF.COMPS:ARP:1,2012-02-03T11:24:00Z,28.4330,-82.6670,-0.574,1111122 
COMPS,ioos:station:USF.COMPS:ARP:1,2012-02-03T11:30:00Z,28.4330,-82.6670,-0.574,1111122 
COMPS,ioos:station:USF.COMPS:ARP:1,2012-02-03T11:36:00Z,28.4330,-82.6670,-0.574,1111122 
COMPS,ioos:station:USF.COMPS:ARP:1,2012-02-03T11:42:00Z,28.4330,-82.6670,-0.574,1111122 
COMPS,ioos:station:USF.COMPS:ARP:1,2012-02-03T11:48:00Z,28.4330,-82.6670,-0.574,1111122 
COMPS,ioos:station:USF.COMPS:ARP:1,2012-02-03T11:54:00Z,28.4330,-82.6670,-0.574,1111122 
COMPS,ioos:station:USF.COMPS:ARP:1,2012-02-03T12:00:00Z,28.4330,-82.6670,-0.574,1111122 
COMPS,ioos:station:USF.COMPS:ARP:1,2012-02-03T12:06:00Z,28.4330,-82.6670,-0.575,1111122 
COMPS,ioos:station:USF.COMPS:ARP:1,2012-02-03T12:12:00Z,28.4330,-82.6670,-0.575,1111122 
COMPS,ioos:station:USF.COMPS:ARP:1,2012-02-03T12:18:00Z,28.4330,-82.6670,-0.576,1111122 
COMPS,ioos:station:USF.COMPS:ARP:1,2012-02-03T12:24:00Z,28.4330,-82.6670,-0.582,1111122 
COMPS,ioos:station:USF.COMPS:ARP:1,2012-02-03T12:30:00Z,28.4330,-82.6670,-0.578,1111122 
COMPS,ioos:station:USF.COMPS:ARP:1,2012-02-03T12:36:00Z,28.4330,-82.6670,-0.579,1111122 
COMPS,ioos:station:USF.COMPS:ARP:1,2012-02-03T12:42:00Z,28.4330,-82.6670,-0.576,1111122 
COMPS,ioos:station:USF.COMPS:ARP:1,2012-02-03T12:48:00Z,28.4330,-82.6670,-0.565,1111122 
COMPS,ioos:station:USF.COMPS:ARP:1,2012-02-03T12:54:00Z,28.4330,-82.6670,-0.554,1111122 
COMPS,ioos:station:USF.COMPS:ARP:1,2012-02-03T13:00:00Z,28.4330,-82.6670,-0.542,1111122 
COMPS,ioos:station:USF.COMPS:ARP:1,2012-02-03T13:06:00Z,28.4330,-82.6670,-0.529,1111122 
COMPS,ioos:station:USF.COMPS:ARP:1,2012-02-03T13:12:00Z,28.4330,-82.6670,-0.514,1111122 
COMPS,ioos:station:USF.COMPS:ARP:1,2012-02-03T13:18:00Z,28.4330,-82.6670,-0.498,1111122 
COMPS,ioos:station:USF.COMPS:ARP:1,2012-02-03T13:24:00Z,28.4330,-82.6670,-0.482,1111122 
COMPS,ioos:station:USF.COMPS:ARP:1,2012-02-03T13:30:00Z,28.4330,-82.6670,-0.465,1111122 
COMPS,ioos:station:USF.COMPS:ARP:1,2012-02-03T13:36:00Z,28.4330,-82.6670,-0.447,1111122 
COMPS,ioos:station:USF.COMPS:ARP:1,2012-02-03T13:42:00Z,28.4330,-82.6670,-0.43,1111122 
COMPS,ioos:station:USF.COMPS:ARP:1,2012-02-03T13:48:00Z,28.4330,-82.6670,-0.412,1111122 
COMPS,ioos:station:USF.COMPS:ARP:1,2012-02-03T13:54:00Z,28.4330,-82.6670,-0.39,1111122 
COMPS,ioos:station:USF.COMPS:ARP:1,2012-02-03T14:00:00Z,28.4330,-82.6670,-0.367,1111122 
COMPS,ioos:station:USF.COMPS:ARP:1,2012-02-03T14:06:00Z,28.4330,-82.6670,-0.343,1111122 
COMPS,ioos:station:USF.COMPS:ARP:1,2012-02-03T14:12:00Z,28.4330,-82.6670,-0.32,1111122 
COMPS,ioos:station:USF.COMPS:ARP:1,2012-02-03T14:18:00Z,28.4330,-82.6670,-0.296,1111122 
COMPS,ioos:station:USF.COMPS:ARP:1,2012-02-03T14:24:00Z,28.4330,-82.6670,-0.27,1111122 
COMPS,ioos:station:USF.COMPS:ARP:1,2012-02-03T14:30:00Z,28.4330,-82.6670,-0.248,1111122 
COMPS,ioos:station:USF.COMPS:ARP:1,2012-02-03T14:36:00Z,28.4330,-82.6670,-0.225,1111122 
COMPS,ioos:station:USF.COMPS:ARP:1,2012-02-03T14:42:00Z,28.4330,-82.6670,-0.204,1111122 
COMPS,ioos:station:USF.COMPS:ARP:1,2012-02-03T14:48:00Z,28.4330,-82.6670,-0.182,1111122 
COMPS,ioos:station:USF.COMPS:ARP:1,2012-02-03T14:54:00Z,28.4330,-82.6670,-0.165,1111122 
COMPS,ioos:station:USF.COMPS:ARP:1,2012-02-03T15:00:00Z,28.4330,-82.6670,-0.152,1111122 
COMPS,ioos:station:USF.COMPS:ARP:1,2012-02-03T15:06:00Z,28.4330,-82.6670,-0.14,1111122 
COMPS,ioos:station:USF.COMPS:ARP:1,2012-02-03T15:12:00Z,28.4330,-82.6670,-0.13,1111122 
COMPS,ioos:station:USF.COMPS:ARP:1,2012-02-03T15:18:00Z,28.4330,-82.6670,-0.122,1111122 
COMPS,ioos:station:USF.COMPS:ARP:1,2012-02-03T15:24:00Z,28.4330,-82.6670,-0.112,1111122 
COMPS,ioos:station:USF.COMPS:ARP:1,2012-02-03T15:30:00Z,28.4330,-82.6670,-0.104,1111122 
COMPS,ioos:station:USF.COMPS:ARP:1,2012-02-03T15:36:00Z,28.4330,-82.6670,-0.094,1111122 
COMPS,ioos:station:USF.COMPS:ARP:1,2012-02-03T15:42:00Z,28.4330,-82.6670,-0.083,1111122 
COMPS,ioos:station:USF.COMPS:ARP:1,2012-02-03T15:48:00Z,28.4330,-82.6670,-0.07,1111122 
COMPS,ioos:station:USF.COMPS:ARP:1,2012-02-03T15:54:00Z,28.4330,-82.6670,-0.063,1111122 
COMPS,ioos:station:USF.COMPS:ARP:1,2012-02-03T16:00:00Z,28.4330,-82.6670,-0.062,1111122 
COMPS,ioos:station:USF.COMPS:ARP:1,2012-02-03T16:06:00Z,28.4330,-82.6670,-0.054,1111122 
COMPS,ioos:station:USF.COMPS:ARP:1,2012-02-03T16:12:00Z,28.4330,-82.6670,-0.053,1111122 
COMPS,ioos:station:USF.COMPS:ARP:1,2012-02-03T16:18:00Z,28.4330,-82.6670,-0.05,1111122 
COMPS,ioos:station:USF.COMPS:ARP:1,2012-02-03T16:24:00Z,28.4330,-82.6670,-0.047,1111122 
COMPS,ioos:station:USF.COMPS:ARP:1,2012-02-03T16:30:00Z,28.4330,-82.6670,-0.043,1111122 
COMPS,ioos:station:USF.COMPS:ARP:1,2012-02-03T16:36:00Z,28.4330,-82.6670,-0.059,1111122 
COMPS,ioos:station:USF.COMPS:ARP:1,2012-02-03T16:42:00Z,28.4330,-82.6670,-0.06,1111122 
COMPS,ioos:station:USF.COMPS:ARP:1,2012-02-03T16:48:00Z,28.4330,-82.6670,-0.073,1111122 
COMPS,ioos:station:USF.COMPS:ARP:1,2012-02-03T16:54:00Z,28.4330,-82.6670,-0.072,1111122 
COMPS,ioos:station:USF.COMPS:ARP:1,2012-02-03T17:00:00Z,28.4330,-82.6670,-0.088,1111122 
COMPS,ioos:station:USF.COMPS:ARP:1,2012-02-03T17:06:00Z,28.4330,-82.6670,-0.082,1111122 
COMPS,ioos:station:USF.COMPS:ARP:1,2012-02-03T17:12:00Z,28.4330,-82.6670,-0.082,1111122 
COMPS,ioos:station:USF.COMPS:ARP:1,2012-02-03T17:18:00Z,28.4330,-82.6670,-0.077,1111122 
COMPS,ioos:station:USF.COMPS:ARP:1,2012-02-03T17:24:00Z,28.4330,-82.6670,-0.078,1111122 
COMPS,ioos:station:USF.COMPS:ARP:1,2012-02-03T17:30:00Z,28.4330,-82.6670,-0.076,1111122 
COMPS,ioos:station:USF.COMPS:ARP:1,2012-02-03T17:36:00Z,28.4330,-82.6670,-0.092,1111122 
COMPS,ioos:station:USF.COMPS:ARP:1,2012-02-03T17:42:00Z,28.4330,-82.6670,-0.1,1111122 
COMPS,ioos:station:USF.COMPS:ARP:1,2012-02-03T17:48:00Z,28.4330,-82.6670,-0.117,1111122 
COMPS,ioos:station:USF.COMPS:ARP:1,2012-02-03T17:54:00Z,28.4330,-82.6670,-0.129,1111122 
COMPS,ioos:station:USF.COMPS:ARP:1,2012-02-03T18:00:00Z,28.4330,-82.6670,-0.143,1111122 
COMPS,ioos:station:USF.COMPS:ARP:1,2012-02-03T18:06:00Z,28.4330,-82.6670,-0.148,1111122 
COMPS,ioos:station:USF.COMPS:ARP:1,2012-02-03T18:12:00Z,28.4330,-82.6670,-0.155,1111122 
COMPS,ioos:station:USF.COMPS:ARP:1,2012-02-03T18:18:00Z,28.4330,-82.6670,-0.158,1111122 
COMPS,ioos:station:USF.COMPS:ARP:1,2012-02-03T18:24:00Z,28.4330,-82.6670,-0.158,1111122 
COMPS,ioos:station:USF.COMPS:ARP:1,2012-02-03T18:30:00Z,28.4330,-82.6670,-0.167,1111122 
COMPS,ioos:station:USF.COMPS:ARP:1,2012-02-03T18:36:00Z,28.4330,-82.6670,-0.172,1111122 
COMPS,ioos:station:USF.COMPS:ARP:1,2012-02-03T18:42:00Z,28.4330,-82.6670,-0.173,1111122 
COMPS,ioos:station:USF.COMPS:ARP:1,2012-02-03T18:48:00Z,28.4330,-82.6670,-0.184,1111122 
COMPS,ioos:station:USF.COMPS:ARP:1,2012-02-03T18:54:00Z,28.4330,-82.6670,-0.191,1111122 
COMPS,ioos:station:USF.COMPS:ARP:1,2012-02-03T19:00:00Z,28.4330,-82.6670,-0.195,1111122 
COMPS,ioos:station:USF.COMPS:ARP:1,2012-02-03T19:06:00Z,28.4330,-82.6670,-0.206,1111122 
COMPS,ioos:station:USF.COMPS:ARP:1,2012-02-03T19:12:00Z,28.4330,-82.6670,-0.217,1111122 
COMPS,ioos:station:USF.COMPS:ARP:1,2012-02-03T19:18:00Z,28.4330,-82.6670,-0.222,1111122 
COMPS,ioos:station:USF.COMPS:ARP:1,2012-02-03T19:24:00Z,28.4330,-82.6670,-0.226,1111122 
COMPS,ioos:station:USF.COMPS:ARP:1,2012-02-03T19:30:00Z,28.4330,-82.6670,-0.235,1111122 
COMPS,ioos:station:USF.COMPS:ARP:1,2012-02-03T19:36:00Z,28.4330,-82.6670,-0.24,1111122 
COMPS,ioos:station:USF.COMPS:ARP:1,2012-02-03T19:42:00Z,28.4330,-82.6670,-0.244,1111122 
COMPS,ioos:station:USF.COMPS:ARP:1,2012-02-03T19:48:00Z,28.4330,-82.6670,-0.247,1111122 
COMPS,ioos:station:USF.COMPS:ARP:1,2012-02-03T19:54:00Z,28.4330,-82.6670,-0.252,1111122 
COMPS,ioos:station:USF.COMPS:ARP:1,2012-02-03T20:00:00Z,28.4330,-82.6670,-0.248,1111122 
COMPS,ioos:station:USF.COMPS:ARP:1,2012-02-03T20:06:00Z,28.4330,-82.6670,-0.255,1111122 
COMPS,ioos:station:USF.COMPS:ARP:1,2012-02-03T20:12:00Z,28.4330,-82.6670,-0.261,1111122 
COMPS,ioos:station:USF.COMPS:ARP:1,2012-02-03T20:18:00Z,28.4330,-82.6670,-0.261,1111122 
COMPS,ioos:station:USF.COMPS:ARP:1,2012-02-03T20:24:00Z,28.4330,-82.6670,-0.267,1111122 
COMPS,ioos:station:USF.COMPS:ARP:1,2012-02-03T20:30:00Z,28.4330,-82.6670,-0.263,1111122 
COMPS,ioos:station:USF.COMPS:ARP:1,2012-02-03T20:36:00Z,28.4330,-82.6670,-0.261,1111122 
COMPS,ioos:station:USF.COMPS:ARP:1,2012-02-03T20:42:00Z,28.4330,-82.6670,-0.268,1111122 
COMPS,ioos:station:USF.COMPS:ARP:1,2012-02-03T20:48:00Z,28.4330,-82.6670,-0.268,1111122 
COMPS,ioos:station:USF.COMPS:ARP:1,2012-02-03T20:54:00Z,28.4330,-82.6670,-0.273,1111122 
COMPS,ioos:station:USF.COMPS:ARP:1,2012-02-03T21:00:00Z,28.4330,-82.6670,-0.275,1111122 
COMPS,ioos:station:USF.COMPS:ARP:1,2012-02-03T21:06:00Z,28.4330,-82.6670,-0.269,1111122 
COMPS,ioos:station:USF.COMPS:ARP:1,2012-02-03T21:12:00Z,28.4330,-82.6670,-0.262,1111122 
COMPS,ioos:station:USF.COMPS:ARP:1,2012-02-03T21:18:00Z,28.4330,-82.6670,-0.257,1111122 
COMPS,ioos:station:USF.COMPS:ARP:1,2012-02-03T21:24:00Z,28.4330,-82.6670,-0.245,1111122 
COMPS,ioos:station:USF.COMPS:ARP:1,2012-02-03T21:30:00Z,28.4330,-82.6670,-0.235,1111122 
COMPS,ioos:station:USF.COMPS:ARP:1,2012-02-03T21:36:00Z,28.4330,-82.6670,-0.224,1111122 
COMPS,ioos:station:USF.COMPS:ARP:1,2012-02-03T21:42:00Z,28.4330,-82.6670,-0.213,1111122 
COMPS,ioos:station:USF.COMPS:ARP:1,2012-02-03T21:48:00Z,28.4330,-82.6670,-0.203,1111122 
COMPS,ioos:station:USF.COMPS:ARP:1,2012-02-03T21:54:00Z,28.4330,-82.6670,-0.194,1111122 
COMPS,ioos:station:USF.COMPS:ARP:1,2012-02-03T22:00:00Z,28.4330,-82.6670,-0.191,1111122 
COMPS,ioos:station:USF.COMPS:ARP:1,2012-02-03T22:06:00Z,28.4330,-82.6670,-0.181,1111122 
COMPS,ioos:station:USF.COMPS:ARP:1,2012-02-03T22:12:00Z,28.4330,-82.6670,-0.182,1111122 
COMPS,ioos:station:USF.COMPS:ARP:1,2012-02-03T22:18:00Z,28.4330,-82.6670,-0.176,1111122 
COMPS,ioos:station:USF.COMPS:ARP:1,2012-02-03T22:24:00Z,28.4330,-82.6670,-0.175,1111122 
COMPS,ioos:station:USF.COMPS:ARP:1,2012-02-03T22:30:00Z,28.4330,-82.6670,-0.168,1111122 
COMPS,ioos:station:USF.COMPS:ARP:1,2012-02-03T22:36:00Z,28.4330,-82.6670,-0.166,1111122 
COMPS,ioos:station:USF.COMPS:ARP:1,2012-02-03T22:42:00Z,28.4330,-82.6670,-0.155,1111122 
COMPS,ioos:station:USF.COMPS:ARP:1,2012-02-03T22:48:00Z,28.4330,-82.6670,-0.143,1111122 